Home   Weather   Orange   Past weeks

Flag for USA Past Weather in Orange, California, USA — Yesterday and Last 2 Weeks

65 °F

Passing clouds.

Feels Like: 65 °F
Forecast: 62 / 76 °F
Wind: No wind

Location: John Wayne Airport-Orange County Airport

Current Time: Oct 28, 2016 at 5:23:02 AM

Latest Report: Oct 28, 2016 at 4:53 AM

Visibility: 10 mi

Pressure: 29.90 "Hg

Humidity: 81%

Dew Point: 59 °F

Location of OrangeLocation

Past Weather in Orange — Graph


Orange Temperature Yesterday

Maximum temperature yesterday: 77 °F (at 11:53 AM)
Minimum temperature yesterday: 61 °F (at 3:53 AM)
Average temperature yesterday: 68 °F

High & Low Weather Summary for the Past Weeks

High95 °F (Oct 20, 1:53 PM)100% (Oct 23, 2:03 AM)30.13 "Hg (Oct 23, 2:03 AM)
Low57 °F (Oct 13, 4:53 AM)10% (Oct 20, 12:53 PM)29.80 "Hg (Oct 21, 4:53 PM)
Average68 °F69%29.96 "Hg
* Reported Oct 13 3:53 AM — Oct 28 3:53 AM, Orange, Weather by CustomWeather, © 2016

Note: Actual official high and low records may vary slightly from our data, if they occured in-between our weather recording intervals... More about our weather records


Orange Weather History for the Previous 24 Hours

Scroll right to see more
Time TempWeatherWind HumidityBarometerVisibility
3:53 AM
Fri, Oct 28
65 °FPassing clouds.5 mph81%29.91 "Hg10 mi
2:53 AM65 °FPartly cloudy.No wind81%29.91 "Hg10 mi
1:53 AM65 °FPassing clouds.No wind81%29.91 "Hg10 mi
12:53 AM66 °FClear.3 mph75%29.89 "Hg10 mi
11:53 PM
Thu, Oct 27
66 °FClear.3 mph75%29.87 "Hg10 mi
10:53 PM66 °FMostly cloudy.7 mph73%29.87 "Hg10 mi
9:53 PM69 °FMostly cloudy.No wind63%29.85 "Hg10 mi
8:53 PM70 °FPartly cloudy.6 mph51%29.87 "Hg10 mi
7:53 PM70 °FPartly cloudy.No wind59%29.88 "Hg10 mi
6:53 PM69 °FPassing clouds.12 mph66%29.87 "Hg10 mi
5:53 PM75 °FMostly cloudy.No wind62%29.83 "Hg8 mi
4:53 PM74 °FMostly cloudy.3 mph64%29.85 "Hg8 mi
3:53 PM77 °FMostly cloudy.6 mph56%29.87 "Hg9 mi
2:53 PM77 °FMostly cloudy.3 mph54%29.88 "Hg10 mi
1:53 PM76 °FBroken clouds.3 mph54%29.91 "Hg9 mi
12:53 PM75 °FBroken clouds.7 mph60%29.94 "Hg10 mi
11:53 AM77 °FPartly sunny.5 mph56%29.94 "Hg9 mi
10:53 AM72 °FPartly sunny.No wind66%29.98 "Hg7 mi
9:53 AM67 °FBroken clouds.No wind79%30.00 "Hg9 mi
8:53 AM63 °FBroken clouds.No wind84%30.00 "Hg9 mi
7:53 AM62 °FBroken clouds.No wind83%29.98 "Hg9 mi
6:53 AM61 °FPassing clouds.No wind87%29.97 "Hg10 mi
5:53 AM61 °FPassing clouds.No wind87%29.96 "Hg10 mi
Weather by CustomWeather, © 2016

See weather overviewHow to use our weather pages